This demonstration page uses our WeatherBlox Daily Observations layout. Learn more.

Left ArrowRight Arrow

39.08367, -84.50855

Hourly Observations for October 4, 2015

Temp ( °F °C ) Dew Point ( °F °C ) Humidity (%) Winds ( mph kmh ) Pressure ( in mb ) Visibility ( mi km ) Precip ( " mm )
12:53 am 00:53 Mostly Cloudy 53 11.7 52 11.1 96 96 NNE 6 9 30.03 1017 10 16 0.00 0.00
1:20 am 01:20 Cloudy 54 12 52 11 94 94 NNE 5 7 30.03 1017 10 16 0.00 0.00
1:53 am 01:53 Cloudy 53 11.7 52 11.1 96 96 NNE 6 9 30.02 1017 10 16 0.00 0.00
2:13 am 02:13 Cloudy 53 11.7 52 11.1 96 96 NNE 6 9 30.03 1017 10 16 0.00 0.00
2:40 am 02:40 Cloudy 54 12 54 12 100 100 NE 5 7 30.03 1017 10 16 0.00 0.00
2:53 am 02:53 Mostly Cloudy 53 11.7 52 11.1 96 96 NNE 5 7 30.04 1017 10 16 0.00 0.00
3:53 am 03:53 Mostly Cloudy 54 12.2 53 11.7 97 97 NNE 7 11 30.03 1017 10 16 0.00 0.00
4:53 am 04:53 Cloudy 54 12.2 53 11.7 97 97 NNE 7 11 30.04 1017 10 16 0.00 0.00
5:53 am 05:53 Cloudy 55 12.8 53 11.7 93 93 NNE 7 11 30.05 1018 10 16 0.00 0.00
6:53 am 06:53 Cloudy 54 12.2 53 11.7 97 97 NE 8 13 30.06 1018 10 16 0.00 0.00
7:53 am 07:53 Cloudy 54 12.2 52 11.1 93 93 NE 7 11 30.07 1018 10 16 0.00 0.00
8:53 am 08:53 Cloudy 56 13.3 52 11.1 87 87 ENE 10 17 30.09 1019 10 16 0.00 0.00
9:53 am 09:53 Sunny 58 14.4 52 11.1 81 81 ENE 12 19 30.09 1019 10 16 0.00 0.00
10:53 am 10:53 Sunny 62 16.7 54 12.2 75 75 NE 10 17 30.09 1019 10 16 0.00 0.00
11:53 am 11:53 Sunny 66 18.9 56 13.3 70 70 NE 8 13 30.08 1019 10 16 0.00 0.00
12:53 pm 12:53 Sunny 69 20.6 57 13.9 66 66 ENE 9 15 30.06 1018 10 16 0.00 0.00
1:53 pm 13:53 Sunny 73 22.8 60 15.6 64 64 ENE 10 17 30.05 1018 10 16 0.00 0.00
2:53 pm 14:53 Sunny 75 23.9 60 15.6 60 60 E 8 13 30.03 1017 10 16 0.00 0.00
3:53 pm 15:53 Sunny 76 24.4 60 15.6 58 58 E 8 13 30.01 1016 10 16 0.00 0.00
4:53 pm 16:53 Sunny 76 24.4 60 15.6 58 58 ENE 8 13 30.01 1016 10 16 0.00 0.00
5:53 pm 17:53 Sunny 75 23.9 60 15.6 60 60 ENE 9 15 30.02 1017 10 16 0.00 0.00
6:53 pm 18:53 Mostly Sunny 72 22.2 61 16.1 68 68 ENE 7 11 30.04 1017 10 16 0.00 0.00
7:53 pm 19:53 Clear 64 17.8 62 16.7 93 93 NE 3 6 30.05 1018 10 16 0.00 0.00
8:53 pm 20:53 Clear 65 18.3 61 16.1 87 87 NNE 6 9 30.06 1018 10 16 0.00 0.00
9:53 pm 21:53 Clear 60 15.6 60 15.6 100 100 Calm 30.07 1018 10 16 0.00 0.00
10:53 pm 22:53 Clear 59 15 59 15 100 100 NNE 3 6 30.07 1018 10 16 0.00 0.00
11:53 pm 23:53 Clear 62 16.7 59 15 90 90 NNE 7 11 30.08 1019 10 16 0.00 0.00

Powered by AerisWeather